sat.trackr.live / text

‹ back to catalog

STARLINK-33688

NORAD 63483 · 2025-070Z

PAYLOAD ACTIVE UNKNOWN

§ Identity

Operator
Country
US
Launch date
2025-04-06
Launch site
AFETR
Launch vehicle
Mass (kg)
RCS (m²)

Purposes: comms

External: N2YO · Heavens-Above · Gunter

§ Orbital elements

Epoch: 2026-05-25T02:53:21.810048Z

Period
94.27 min
Inclination
43.0009°
Eccentricity
0.0001523
Mean motion
15.27589916 rev/d
Perigee alt
482.0 km
Apogee alt
484.1 km
Semi-major
6,861.2 km
B*
6.3777e-4
RAAN
188.3014°
Arg perigee
252.2274°
Mean anomaly
107.8411°
Rev number
6,466

§ Raw data

STARLINK-336881 63483U 25070Z   26145.12039132  .00017334  00000+0  63777-3 0  99972 63483  43.0009 188.3014 0001523 252.2274 107.8411 15.27589916 64669

JSON: /api/v1/satellites/63483 · /tle

For live sub-satellite position, see the globe view (requires WebGL).

§ Visibility from observer

Set your observer location to see the next 7 days of passes ≥ 10°. The values pass through the URL so the page stays shareable.

No JS? Fill the form by hand. The geolocation button needs JavaScript.